Current weather by "City, St" or "zip code"  
 

Current Conditions: Pine Ridge, Pine Ridge Airport, SD

Fair


44.0 F

Last Updated on Oct 21 2021, 10:52 am MDT
Humidity: 76%
Wind Speed: N 0.0 mph
Barometer 30.22 in
Dewpoint: 37.0 F
Visibility: NULL mi
Precip: --
Heat Index: NA
Wind Chill: NA
Current conditions at:

Pine Ridge, Pine Ridge Airport, SD (KIEN)

Lat: 43.02556 Lon: 102.52306

Local Radar Image active severe weather and emergency alerts image image weather storm and storm spotter reports image weather observation monitoring service image
Local
Radar
Active
Alerts
Storm Reports Obs
Monitoring

Sign-up For Email & Text Message Weather Alert Notification Services



Advertise Here

Observation History for Pine Ridge, Pine Ridge Airport, SD


Time Wind
(mph)
Vis
(mi)
Weather Precip (in) Temperature (F) Relative
Humidity
Wind
Chill
(F)
Heat
Index
(F)
Pressure
Air Dwpt altimeter
(in)
sea level
(mb)
Rmks
10:52 am MDT N 0.0 NULL Fair -- 44.0 37.0 76% NA NA 30.22 1025.6
9:52 am MDT N 0.0 NULL Fair -- 39.0 35.1 86% NA NA 30.23 1026.2
8:52 am MDT W 4.6 10.00 Fair -- 31.0 28.0 89% 26 NA 30.24 1026.9
7:52 am MDT N 0.0 10.00 Fair -- 26.0 21.9 84% NA NA 30.21 1026.1
6:52 am MDT N 0.0 10.00 Fair -- 24.0 21.0 88% NA NA 30.20 1025.8
5:52 am MDT N 0.0 10.00 Fair -- 24.0 21.9 91% NA NA 30.20 1025.3
4:52 am MDT E 4.6 10.00 Fair -- 24.0 21.0 88% 18 NA 30.19 1024.9
3:52 am MDT N 0.0 10.00 Fair -- 23.0 21.0 92% NA NA 30.20 1025.2
2:52 am MDT E 3.5 10.00 Fair -- 24.0 21.9 91% NA NA 30.19 1024.9
1:52 am MDT N 0.0 10.00 Fair -- 25.0 23.0 92% NA NA 30.19 1024.8
12:52 am MDT W 3.5 10.00 Fair -- 28.0 25.0 88% NA NA 30.19 1025.1
11:52 pm MDT N 0.0 10.00 Fair -- 29.0 26.1 89% NA NA 30.19 1025.0
10:52 pm MDT N 0.0 10.00 Fair -- 26.0 24.1 92% NA NA 30.18 1025.1
9:52 pm MDT N 0.0 10.00 Fair -- 29.0 26.1 89% NA NA 30.19 1025.0
8:52 pm MDT N 0.0 10.00 Fair -- 30.0 27.0 88% NA NA 30.19 1025.1
7:52 pm MDT N 0.0 10.00 Fair -- 32.0 28.0 85% NA NA 30.18 1024.5
6:52 pm MDT NE 4.6 10.00 Fair -- 34.0 30.9 89% 30 NA 30.16 1023.7
5:52 pm MDT N 4.6 10.00 Fair -- 39.0 32.0 76% 36 NA 30.15 1023.2
4:52 pm MDT N 5.8 10.00 A Few Clouds -- 43.0 33.1 68% 39 NA 30.15 1022.8
3:52 pm MDT W 8.1 1.00 Fair with Haze -- 43.0 33.1 68% 38 NA 30.16 1023.1
2:52 pm MDT W 9.2 0.50 Mostly Cloudy with Haze -- 41.0 33.1 73% 35 NA 30.17 1023.5
1:52 pm MDT NW 9.2 10.00 Overcast -- 40.0 34.0 79% 34 NA 30.17 1023.6
12:52 pm MDT N 9.2 10.00 Overcast -- 38.0 33.1 83% 32 NA 30.20 1024.7

Regional Weather Observation


Gordon Municipal, NE (KGRN)

Fair
51.0 F

Chadron, Chadron Municipal Airport, NE (KCDR)

Fair
51.0 F

Custer, Custer County Airport, SD (KCUT)

Fair
55.0 F

Alliance, Alliance Municipal Airport, NE (KAIA)

Fair
54.0 F

Rapid City, Rapid City Regional Airport, SD (KRAP)

Fair
47.0 F

Ellsworth Air Force Base, SD (KRCA)

Fair
49.0 F

Advertise Here


Advertise Here